User: anonymous   Login
Location: Unspecified
(0.0000°N, 0.0000°E)
Time: 15:54:50
(UTC+00:00)
Language:

CP-7 DAVE - Orbit

View from above orbital plane
View from above orbital plane
View from above satellite
View from above satellite

Ground track
Ground track

The orbit data is extracted from the following two-line orbital elements,

1 43615U 18070C   22280.12221377  .00096769  00000-0  10858-2 0  9995
2 43615  93.0133 146.0904 0006033 309.5250  50.5483 15.62321590228416
Epoch (UTC): 07 October 2022 02:55:59
Eccentricity: 0.0006033
inclination: 93.0133°
perigee height: 377 km
apogee height: 385 km
right ascension of ascending node: 146.0904°
argument of perigee: 309.5250°
revolutions per day: 15.62321590
mean anomaly at epoch: 50.5483°
orbit number at epoch: 22841

The dashed part of the orbit path shows where the satellite is in the earth's shadow,  

DLR